EHI
0 0 0 0 0 1 0 0 0 1 2 3 3 3 1 0 0 0 0 0 0 0 0 0 0 0 0 0 0 0 0 1 2 2 1 0 0 0 0 0 0 0 0
0 0 0 0 0 1 1 1 1 1 2 3 3 3 2 1 1 0 0 0 0 0 0 0 0 0 0 0 0 0 0 0 1 1 0 0 0 0 0 0 0 0 0
0 0 0 0 0 0 1 1 1 1 2 3 3 3 3 3 2 1 1 0 0 0 0 0 0 0 0 0 0 0 0 0 0 1 1 0 0 0 0 0 0 0 0
0 0 0 0 0 1 1 1 1 1 2 3 3 3 3 3 3 3 2 1 0 0 0 0 0 0 0 0 0 0 0 0 0 1 1 0 0 0 0 0 0 0 0
0 0 0 0 0 1 2 1 0 0 2 3 3 2 1 2 3 3 2 1 0 0 0 0 0 0 0 0 0 0 0 0 0 0 0 0 0 0 0 0 0 0 0
0 0 0 0 0 1 1 1 0 0 1 2 1 1 1 2 2 2 1 0 0 0 0 0 0 0 0 0 0 0 0 0 1 1 0 0 0 0 0 0 0 0 0
0 0 0 0 0 0 0 0 0 0 0 0 0 0 1 1 1 1 0 0 0 0 0 0 0 0 0 0 0 0 0 1 2 2 1 1 0 0 0 0 0 0 0
0 0 0 0 0 0 0 0 0 0 0 0 0 0 0 0 0 0 0 0 0 0 0 0 0 0 0 0 0 0 0 1 2 3 3 2 1 0 0 0 0 0 0
0 0 0 0 0 0 0 0 0 0 0 0 0 0 0 0 1 2 1 0 0 0 0 0 0 0 0 0 0 0 0 1 1 2 3 3 2 1 0 0 0 0 0
0 0 0 0 0 0 0 1 0 0 0 0 0 0 0 0 2 2 2 0 0 0 0 0 0 0 0 0 0 0 0 0 1 1 2 2 3 2 1 0 0 0 0
0 0 0 0 0 0 0 0 0 0 0 0 0 0 0 0 1 2 1 0 0 0 0 0 0 0 0 0 0 0 0 0 0 0 0 1 3 3 2 1 0 0 0
0 0 0 0 0 0 0 0 0 0 0 0 0 0 0 0 0 0 0 0 0 0 0 0 0 0 0 0 0 0 0 0 0 0 0 1 2 3 3 2 1 0 0
0 0 0 0 0 0 0 0 0 0 1 1 1 1 1 0 0 0 0 0 0 0 0 0 0 0 0 0 0 0 0 0 0 0 0 0 1 2 2 2 1 0 0
0 0 0 0 0 0 0 0 0 0 1 2 1 1 0 0 1 1 1 0 0 0 0 0 0 0 0 0 0 0 0 0 0 0 0 0 0 1 1 1 0 0 0
0 0 0 0 0 0 0 0 0 1 1 2 1 1 1 1 1 3 2 1 0 0 0 0 0 0 0 0 0 0 0 0 0 0 0 0 0 0 0 0 0 0 0
0 0 0 0 0 0 0 0 1 2 2 2 2 2 2 2 3 4 3 2 1 0 1 0 0 0 0 0 0 0 0 0 0 0 0 0 0 0 0 0 0 0 0
0 0 0 0 0 0 0 1 2 3 3 2 2 2 2 3 4 4 3 2 1 0 0 0 0 0 0 0 0 0 0 0 0 0 0 0 0 0 0 0 0 0 0
0 0 0 0 0 0 1 2 3 3 2 1 1 1 1 2 3 3 3 3 1 0 0 0 0 0 0 0 0 0 0 0 0 0 0 0 0 0 0 0 0 0 0
0 0 0 0 0 0 1 3 4 3 2 1 0 0 0 1 2 3 3 3 2 1 0 0 0 0 0 0 0 0 0 0 0 0 0 0 0 0 0 0 0 0 0
0 0 0 0 0 0 1 3 4 3 3 1 0 0 1 1 1 2 3 3 3 2 1 0 0 0 0 0 0 0 0 0 0 0 0 0 0 0 0 0 0 0 0
0 0 0 0 0 0 1 2 3 2 2 1 0 1 2 2 2 3 3 3 3 3 2 0 0 0 0 0 0 0 0 0 0 0 0 0 0 0 0 0 0 0 0
0 0 0 0 0 0 1 2 1 1 1 1 0 1 2 3 3 3 3 3 3 3 2 0 0 0 0 0 0 0 0 0 0 0 0 0 0 0 0 0 0 0 0
0 0 0 0 0 0 1 1 0 0 0 0 0 1 2 3 3 3 3 3 3 3 2 1 0 0 0 0 0 0 0 0 0 0 0 0 0 0 0 0 0 0 0
0 0 0 0 0 0 0 0 0 0 0 0 0 1 2 3 3 3 3 3 3 3 2 1 0 0 0 0 0 0 0 0 0 0 0 0 0 0 0 0 0 0 0
0 0 0 0 0 0 0 0 0 0 0 0 0 1 2 3 3 3 2 2 2 2 2 1 0 0 0 0 0 0 0 0 0 0 0 0 0 0 0 0 0 0 0
0 0 0 0 0 0 0 0 0 0 0 0 0 0 1 3 3 2 1 1 1 1 1 0 0 0 0 0 0 0 0 0 0 0 0 0 0 0 0 0 0 0 0
Wind_Speed
7 6 5 5 5 5 5 5 5 5 4 3 3 2 2 2 2 1 2 2 1 1 1 1 1 1 1 1 1 1 1 1 0 1 2 2 2 2 2 1 2 3 3
7 7 6 6 6 6 6 6 6 5 4 3 2 2 2 1 2 1 2 2 1 1 1 2 2 2 1 2 1 1 1 0 1 1 1 1 3 2 2 1 1 2 2
8 8 8 7 7 6 6 5 6 6 5 4 2 2 2 2 2 2 2 2 2 1 2 2 2 2 2 2 2 2 2 1 1 1 2 2 1 1 2 2 1 1 1
9 8 8 8 7 7 6 6 6 5 5 5 4 4 3 3 2 2 2 3 2 2 2 2 2 3 2 2 3 3 2 2 2 1 2 2 2 2 1 2 2 1 0
9 9 8 8 7 7 6 5 5 5 4 4 4 4 4 2 2 2 3 3 2 3 3 3 3 3 2 2 2 2 2 2 2 1 1 1 1 3 2 1 1 1 1
9 9 8 7 6 6 6 5 5 5 5 5 5 5 4 4 3 3 3 2 2 2 3 3 3 3 2 3 3 3 3 3 2 2 2 2 2 2 1 2 1 1 0
9 9 9 8 7 7 6 6 6 6 6 6 6 5 5 5 4 4 4 3 3 3 4 4 4 3 3 3 3 4 4 4 4 3 2 2 2 2 2 2 1 2 1
8 8 8 8 7 7 7 7 7 7 6 6 6 5 5 3 3 4 4 4 3 3 4 4 4 4 4 4 4 4 4 4 4 4 3 2 2 2 2 2 2 2 1
7 8 8 8 7 7 7 7 7 7 7 6 6 5 5 5 4 5 4 4 4 3 4 5 5 5 5 4 4 4 4 4 4 4 4 3 2 3 2 2 3 3 3
7 7 7 7 6 6 6 6 7 7 6 6 6 5 5 5 5 5 5 5 5 4 4 5 5 5 5 5 4 4 4 5 4 3 4 4 3 3 3 3 3 3 3
6 6 6 6 5 5 5 5 6 7 6 6 6 6 5 5 5 5 5 5 5 5 5 5 5 5 5 5 5 5 5 5 5 5 5 5 4 3 3 3 3 3 3
5 5 5 5 5 5 5 5 5 6 6 6 6 6 5 5 6 6 6 6 5 5 5 5 5 5 5 5 5 5 5 5 5 5 5 5 3 5 4 3 4 3 4
5 5 5 5 5 4 4 5 5 5 5 5 6 6 6 6 6 6 5 5 5 5 5 5 6 5 5 5 5 5 5 6 6 5 6 5 5 5 4 4 4 3 3
4 5 4 5 4 4 4 4 4 5 5 5 6 6 6 6 5 5 5 5 5 5 5 5 5 5 5 5 5 5 6 5 5 5 5 6 6 6 5 4 4 4 4
5 5 5 4 4 4 4 3 4 4 5 6 6 6 6 5 5 4 4 4 5 5 5 5 5 5 5 4 5 5 5 6 5 5 5 5 4 3 3 3 4 4 4
4 5 5 5 4 4 4 4 4 4 5 6 6 5 5 5 5 5 4 4 4 5 5 5 5 5 4 3 3 4 5 5 6 5 5 5 5 4 4 4 4 5 5
4 5 5 5 5 4 4 4 4 4 4 5 5 5 6 5 5 5 4 4 4 4 5 5 5 5 5 4 5 5 5 5 5 5 4 3 4 5 5 6 7 6 6
4 4 4 4 4 4 4 4 3 4 4 5 5 5 6 6 5 5 5 5 5 4 4 5 5 5 4 5 6 6 7 6 5 5 5 5 5 4 4 5 5 6 5
4 4 4 4 3 3 3 3 3 3 4 5 5 6 6 6 6 6 6 5 4 4 4 4 4 4 4 4 5 5 5 5 5 4 4 4 4 2 3 5 5 5 4
3 2 2 3 3 3 3 3 3 3 4 4 5 5 6 6 6 6 6 5 4 4 4 4 4 4 3 3 4 5 4 4 4 4 4 3 3 1 3 5 5 5 4
1 1 2 2 2 3 3 4 4 4 4 4 4 4 5 6 6 5 5 5 4 4 4 4 3 3 3 3 4 3 3 3 3 3 3 2 3 2 3 5 4 3 4
1 1 1 1 1 2 3 3 3 3 3 3 3 3 3 3 4 4 4 4 5 5 4 4 3 2 2 2 3 3 2 2 3 2 2 1 3 3 3 3 2 2 4
1 1 1 1 1 2 3 3 2 2 2 3 3 3 3 3 3 4 4 4 4 4 4 4 3 3 2 2 3 3 2 2 2 1 0 1 2 3 3 3 2 3 3
1 1 1 1 1 2 2 2 2 2 2 3 3 3 3 3 3 3 3 4 4 4 4 4 3 3 2 2 2 2 2 3 2 2 2 3 3 3 2 2 3 3 2
2 2 2 1 2 2 2 1 2 2 3 2 2 3 3 3 3 3 3 4 4 3 4 4 4 4 4 2 1 2 2 2 1 2 2 2 2 2 2 2 2 2 2
2 2 2 2 2 2 1 1 2 2 3 2 2 2 2 2 2 2 2 1 1 2 2 1 2 2 1 3 4 3 2 2 3 3 2 3 3 3 3 3 2 2 2
Wind_Direction
191 181 183 183 182 181 179 168 173 169 167 169 180 170 162 154 143 145 140 140 161 164 144 173 150 152 152 145 139 128 138 143 127 169 134 128 105 89 97 74 72 81 69
192 182 186 188 191 185 184 180 177 172 171 179 185 183 169 170 137 158 161 169 186 198 197 210 195 187 183 193 177 195 245 166 238 282 254 175 151 141 110 116 90 81 84
200 189 187 189 192 192 190 187 182 176 173 172 172 171 170 187 178 178 172 189 201 207 229 231 222 215 218 202 207 212 225 235 242 289 306 300 19 121 149 120 124 100 101
202 195 191 191 193 194 193 191 181 178 174 172 185 194 203 208 209 198 187 195 203 208 217 225 229 218 225 212 214 216 224 238 240 212 288 314 346 288 173 167 144 125 134
200 197 195 193 192 189 188 188 180 179 181 189 197 216 222 221 210 199 196 201 197 211 217 225 228 226 222 226 223 222 231 228 249 243 232 233 242 269 281 260 194 173 154
198 200 196 190 190 185 182 185 188 185 185 199 206 215 218 218 209 213 213 215 206 215 216 220 222 225 228 227 227 223 222 241 243 252 249 249 253 261 261 263 252 250 110
194 193 192 189 190 187 184 186 190 191 190 200 208 213 220 222 220 223 220 225 224 218 216 213 221 221 229 229 222 222 225 228 233 243 251 258 274 277 274 266 276 277 249
193 191 191 192 193 192 192 192 193 195 193 201 208 212 215 223 227 231 229 230 234 232 224 216 220 219 223 225 220 232 224 233 232 234 233 240 249 250 256 271 276 270 252
192 192 192 194 194 196 197 199 200 200 198 202 209 213 216 219 227 232 230 231 237 237 230 218 217 215 218 222 219 230 224 231 239 240 231 231 235 235 240 246 257 272 275
194 192 192 196 198 198 201 203 205 205 204 206 210 213 220 223 228 230 229 230 232 229 226 221 220 218 217 217 217 231 237 232 230 241 245 238 236 233 232 236 248 258 271
193 191 191 195 198 198 200 203 209 208 208 209 214 215 218 225 225 227 230 233 231 226 225 222 221 221 222 219 213 226 226 233 231 223 229 232 234 225 225 235 243 245 249
187 189 190 191 194 198 202 206 213 212 211 214 217 221 219 223 226 227 229 230 229 225 225 222 224 223 225 224 222 224 225 230 232 229 228 228 218 229 229 229 237 239 242
188 188 190 193 196 199 203 205 214 220 214 216 221 223 223 226 229 228 230 230 227 223 223 226 226 224 223 222 227 228 229 229 231 230 230 229 224 225 224 228 235 242 240
196 196 202 205 202 202 206 211 214 221 219 217 222 226 226 227 229 228 227 226 226 224 223 225 225 225 222 223 228 230 229 229 231 230 232 234 233 233 231 227 230 233 234
208 204 206 207 206 205 208 212 217 219 218 218 223 227 228 226 227 222 223 223 224 228 226 225 224 221 218 226 230 229 228 227 226 226 230 235 245 267 255 248 236 229 230
221 211 210 207 211 213 213 212 218 220 221 222 224 222 222 222 223 218 219 220 222 227 224 224 220 219 217 204 221 242 228 227 225 225 224 218 215 220 226 245 253 254 245
232 222 216 214 215 217 221 221 221 219 221 225 223 217 215 215 220 217 213 216 219 220 219 219 217 220 213 190 198 222 236 234 231 225 220 220 216 219 224 211 214 227 243
247 238 227 221 218 216 221 226 220 219 223 222 221 218 216 216 216 214 216 220 220 215 217 218 219 220 212 191 201 215 230 231 229 225 225 224 222 220 238 228 223 227 225
260 248 239 228 218 215 216 217 218 222 230 230 225 220 219 217 215 211 214 218 217 217 221 218 217 219 210 185 197 217 226 230 228 226 227 227 227 195 226 236 231 231 227
266 249 225 210 208 208 205 213 217 224 234 239 239 232 224 221 217 216 214 210 211 216 216 217 218 218 215 166 180 215 225 226 224 220 216 206 250 194 212 231 234 236 238
262 228 205 193 200 200 203 218 228 239 245 244 242 238 229 226 220 217 207 202 203 209 211 210 213 214 210 177 170 201 235 226 224 219 219 196 173 196 213 246 247 257 267
239 207 189 177 185 199 207 220 241 254 254 244 240 236 230 229 220 210 203 201 199 200 202 201 201 210 205 193 174 182 236 281 236 232 229 186 148 178 203 232 265 254 254
256 230 185 174 188 204 218 229 252 256 245 234 232 235 227 222 222 209 197 198 202 205 206 203 199 197 202 177 163 180 199 250 254 250 13 94 155 195 203 205 219 226 242
286 247 218 219 225 227 238 242 248 244 232 228 224 225 219 214 212 209 204 204 207 209 206 205 202 197 193 199 191 193 193 194 216 222 173 174 184 211 226 210 211 226 245
286 262 248 249 257 249 251 262 250 238 233 228 225 225 219 215 209 206 209 213 213 218 216 211 206 198 200 187 174 198 203 218 218 226 208 203 197 208 215 219 227 232 226
297 290 283 271 267 257 259 277 266 244 234 233 231 231 222 212 209 203 191 132 199 163 194 224 234 215 184 156 168 178 177 175 179 199 215 214 213 220 226 230 231 235 240